Temperature
19 18 19 18 18 18 18 18 18 18 18 18 18 18 18 18 18 18 18 18 18 18 18 18 18 18 18 18 18 18 18 18 18 18 18 18 18 17 17 17 17 16 17
19 18 19 18 18 18 18 18 18 18 18 18 18 18 18 18 18 18 18 18 18 18 18 18 18 18 18 18 18 18 18 18 18 18 17 17 17 17 17 17 17 17 17
19 18 18 18 18 18 18 18 18 18 18 18 18 18 18 18 18 18 18 18 18 18 18 18 18 18 18 18 18 18 17 17 17 17 17 17 17 17 17 17 17 17 17
19 18 18 18 18 18 18 18 18 18 18 18 18 18 18 18 18 18 18 18 18 18 18 18 18 18 18 18 18 17 17 17 17 17 17 17 16 17 17 17 17 17 17
18 18 18 18 18 18 18 18 18 18 18 18 18 18 18 18 18 18 18 18 18 18 18 18 18 18 18 18 17 17 17 17 17 17 17 17 17 17 17 17 17 17 17
18 18 17 18 18 18 18 18 18 18 18 18 18 18 18 18 18 18 18 18 18 18 18 18 17 17 17 17 17 18 17 17 17 17 17 17 17 17 17 17 17 17 17
19 18 17 18 18 18 18 18 18 18 18 18 18 18 18 18 18 18 18 17 17 17 17 17 17 17 17 17 17 17 17 17 17 17 17 17 17 17 17 17 17 17 17
19 19 18 18 18 18 18 18 18 18 18 18 18 18 18 18 18 18 18 18 17 17 17 17 17 17 17 17 17 17 17 17 17 17 17 16 17 17 17 17 17 17 17
20 19 18 18 18 18 18 18 18 18 18 18 18 18 18 18 18 18 18 17 17 17 17 17 17 17 17 17 17 17 17 17 18 17 17 16 17 17 17 17 17 17 17
19 19 18 18 18 18 18 18 18 18 18 18 18 18 18 18 18 18 17 17 17 17 17 17 17 17 17 17 17 17 17 17 18 17 17 17 17 17 17 17 17 17 17
19 19 19 19 18 18 18 18 18 18 18 18 18 18 18 17 17 17 17 18 17 17 17 17 17 18 18 18 18 18 17 18 18 18 17 17 17 17 17 17 17 17 17
19 19 19 19 18 18 18 18 18 17 17 17 17 17 17 17 17 17 18 18 18 17 17 17 17 18 17 17 18 18 17 17 18 17 17 17 17 17 17 17 17 17 17
19 19 19 18 18 18 18 18 18 18 17 17 17 17 17 17 17 17 17 17 17 17 17 17 17 17 17 17 17 18 18 18 18 18 17 17 17 17 17 17 17 17 17
19 19 19 19 18 18 18 18 18 18 18 18 17 17 17 17 17 17 17 17 17 17 17 17 17 17 17 17 17 17 17 18 18 17 17 18 17 17 17 17 17 17 17
19 19 19 18 18 18 18 18 18 18 18 18 17 17 17 17 17 17 17 17 17 17 17 17 17 17 17 17 17 17 17 17 17 17 17 17 17 17 17 17 17 17 17
19 19 19 19 19 19 18 18 18 18 18 18 18 17 17 17 17 17 17 17 17 17 17 17 17 17 17 17 17 17 17 17 17 17 17 17 17 17 17 17 17 17 17
20 19 19 19 19 19 18 18 18 18 18 18 18 17 17 17 17 17 17 17 17 17 17 17 17 17 17 17 17 17 17 17 17 17 17 17 17 17 17 17 17 17 17
20 20 19 19 19 19 19 19 18 18 18 18 18 18 18 18 18 18 17 17 17 17 17 17 17 17 17 17 17 17 17 17 17 17 17 17 17 17 17 17 17 17 17
20 20 20 19 19 19 19 19 18 18 18 18 18 18 18 17 17 17 17 17 17 17 17 18 18 18 18 18 18 18 17 17 17 17 17 17 17 17 17 17 17 17 17
20 20 20 20 19 19 19 19 18 18 18 18 18 18 18 18 18 18 18 17 17 17 17 18 17 17 18 18 18 18 18 18 18 18 17 17 17 17 17 17 17 17 17
21 21 20 20 20 19 19 19 19 18 18 18 18 18 18 18 18 18 18 17 18 17 17 17 17 17 18 18 18 18 18 18 18 18 18 17 17 17 17 17 17 17 17
21 21 20 20 20 19 19 19 19 18 18 18 18 18 18 18 18 18 18 18 18 18 18 17 17 18 18 18 18 18 19 19 18 18 18 17 17 17 17 17 17 17 17
21 21 20 20 20 20 19 19 19 18 18 18 18 18 18 18 18 18 18 18 18 18 18 18 18 18 18 18 18 18 18 19 19 18 18 18 17 17 17 17 17 17 17
21 21 21 21 20 20 20 19 19 18 18 18 18 18 18 18 18 18 18 18 18 18 18 18 18 18 17 17 17 17 18 18 18 18 18 18 17 17 17 17 17 17 16
21 21 21 21 20 20 20 19 19 18 18 18 18 18 18 18 18 18 18 18 18 18 18 18 18 17 17 17 17 17 17 17 17 17 17 17 17 17 17 16 16 16 16
21 21 21 21 20 20 20 19 19 19 18 18 18 18 18 18 18 18 18 18 18 18 18 18 18 17 17 17 17 17 17 17 17 17 17 17 17 17 16 16 16 16 16
Wind_Speed
7 11 13 11 12 13 14 14 15 15 15 15 15 15 15 16 16 17 17 17 18 18 18 18 18 18 18 19 18 18 18 18 18 19 19 18 18 17 16 15 15 17 17
10 12 13 11 12 13 13 14 14 14 14 14 14 15 15 16 16 16 17 17 17 17 17 17 17 18 18 18 18 17 17 17 18 18 18 17 16 15 14 11 12 16 16
10 12 12 11 12 12 13 13 13 14 14 14 14 14 15 15 16 16 16 16 17 16 16 17 17 17 17 17 17 16 16 16 16 15 13 15 16 14 14 14 16 16 15
10 11 12 12 11 12 12 12 13 13 13 13 14 14 14 15 15 16 16 16 17 16 16 16 16 15 16 16 15 15 15 14 12 9 10 13 14 15 14 15 15 15 15
10 11 13 10 11 11 11 11 12 13 13 13 13 14 14 14 15 15 16 16 16 16 15 15 15 14 15 14 14 14 13 12 8 6 11 11 13 14 14 14 14 14 14
10 11 14 10 11 10 11 11 11 12 12 12 13 13 14 14 14 15 15 15 15 15 14 14 14 13 13 13 13 12 11 9 7 10 10 11 13 13 13 13 13 13 13
11 11 13 10 10 10 10 10 11 11 12 12 13 13 13 13 14 14 15 15 14 14 14 13 12 12 12 12 11 10 8 4 5 9 9 10 13 13 12 12 12 12 12
10 11 12 11 10 10 10 10 10 11 11 12 12 12 12 12 12 13 13 13 13 13 12 12 11 11 11 10 10 9 6 4 7 8 8 11 13 12 11 11 10 11 11
9 9 9 11 10 10 9 9 10 10 10 11 11 12 12 12 12 12 12 12 12 11 11 11 10 10 10 9 9 8 4 2 4 8 8 10 12 10 10 10 9 9 9
8 8 8 8 8 9 10 10 9 9 9 10 10 10 10 11 11 10 11 11 10 10 9 9 9 9 9 8 8 7 5 5 5 7 7 11 11 9 9 9 8 8 9
7 6 6 8 7 6 8 10 9 9 8 8 9 8 6 7 9 9 12 10 9 9 8 8 7 7 7 9 7 6 6 3 5 5 7 12 10 8 8 8 8 8 8
8 7 6 5 6 5 6 7 5 6 7 5 6 6 5 6 5 7 10 8 7 7 7 6 5 6 6 6 8 8 4 3 4 5 8 11 9 8 8 7 8 8 8
8 7 7 6 5 4 4 5 4 4 5 5 5 4 5 4 5 5 6 7 7 6 5 7 6 3 3 3 2 2 2 2 2 4 9 10 8 8 8 8 8 8 8
8 8 7 7 5 3 3 4 4 4 4 4 5 3 4 3 2 3 2 3 4 3 2 2 2 3 2 2 1 1 2 1 2 2 7 10 8 8 8 8 8 8 8
8 8 7 6 5 4 3 2 3 3 3 4 4 3 2 2 3 3 2 1 1 2 3 2 2 2 2 2 2 1 0 0 1 1 5 9 9 8 9 9 9 9 9
8 8 8 7 6 5 4 2 2 3 2 2 3 3 2 1 2 2 2 2 2 2 1 1 1 2 2 1 1 1 2 2 2 2 2 7 10 9 9 9 10 10 10
8 8 8 8 7 6 5 4 3 4 3 2 2 3 3 3 2 2 1 2 1 1 2 3 2 3 3 3 2 2 2 2 2 3 3 4 7 11 11 10 11 11 11
8 8 8 7 8 8 6 4 3 3 2 3 2 3 3 3 3 3 3 2 1 3 3 3 3 3 2 2 2 3 3 3 4 4 5 5 5 5 10 12 12 11 12
8 8 9 8 8 8 7 5 5 3 3 3 3 3 3 4 4 5 3 2 3 3 3 4 2 2 3 3 3 4 4 4 4 5 5 5 5 5 6 9 12 11 12
9 8 8 9 8 7 6 5 4 4 4 4 3 3 4 4 5 5 4 3 4 3 3 3 3 3 4 4 4 3 4 4 4 4 5 5 5 6 6 6 8 10 13
10 10 9 9 8 7 6 5 5 4 4 3 4 4 4 4 5 5 4 3 4 4 4 5 4 5 5 4 4 4 4 4 4 4 5 5 5 6 5 5 6 5 7
11 10 10 9 8 8 6 5 3 3 3 3 3 3 5 5 5 5 5 4 4 4 5 5 5 5 4 4 4 4 4 3 4 4 4 5 5 4 5 5 5 5 6
11 11 9 9 9 9 7 5 4 3 4 4 4 3 4 5 5 5 5 5 5 5 5 5 5 6 6 4 4 4 4 3 2 2 3 3 3 3 3 3 4 4 5
11 10 9 10 9 9 8 7 7 5 5 4 3 2 2 3 4 4 5 5 5 5 5 6 5 5 6 5 4 5 6 4 3 2 2 2 3 3 3 3 3 3 3
10 9 9 9 9 9 9 8 8 6 5 4 3 3 3 2 3 4 4 4 4 5 5 5 5 6 5 5 5 4 5 5 6 5 4 3 2 2 2 2 2 2 2
10 9 9 9 9 9 9 8 8 7 5 4 4 3 3 2 2 2 3 4 4 4 5 5 5 6 5 5 5 4 4 4 4 4 5 5 3 2 1 1 1 1 1
Wind_Direction
104 98 96 92 91 92 93 93 93 92 91 92 90 90 89 91 93 94 94 94 95 95 95 95 97 98 99 99 101 103 106 109 111 111 111 111 111 111 114 121 123 110 112
111 103 99 94 94 94 95 95 94 93 92 91 90 90 90 90 92 93 95 95 95 96 96 94 95 98 99 101 103 104 106 109 112 113 115 113 110 111 114 109 95 109 116
113 110 109 95 94 93 95 95 96 95 93 91 90 90 91 92 94 95 96 96 96 96 96 96 97 99 100 102 105 105 106 108 112 121 134 119 113 111 110 106 105 114 115
113 111 102 101 96 93 93 94 95 94 94 93 93 93 92 93 94 97 98 98 98 98 97 96 97 100 101 102 104 104 105 106 116 148 128 113 114 112 114 114 116 118 118
109 107 104 104 98 94 94 93 93 94 94 94 93 93 92 93 94 97 98 98 99 100 99 98 98 102 104 104 105 106 107 112 132 138 103 107 108 116 119 119 119 119 120
122 116 107 104 100 96 96 94 93 95 95 94 93 93 91 92 94 95 97 98 99 99 99 99 100 102 105 106 107 110 116 135 166 109 111 112 112 120 121 121 122 121 121
121 114 112 106 102 99 97 95 94 95 96 96 94 94 94 93 93 95 96 97 98 99 98 97 98 100 105 109 110 113 123 168 118 107 111 106 108 120 122 122 122 123 123
121 117 116 115 107 104 100 95 94 95 95 96 97 98 98 96 95 95 97 98 98 97 96 96 96 98 103 106 109 113 129 206 118 107 104 106 112 122 124 124 123 127 127
122 120 123 128 125 121 109 102 99 98 96 96 97 99 100 100 99 100 99 99 99 97 96 96 97 98 100 105 110 114 121 265 117 112 112 111 121 129 131 131 132 133 133
130 124 126 124 126 133 125 113 107 104 101 100 101 103 108 113 111 115 114 102 102 101 99 99 99 101 104 107 115 123 156 221 121 118 115 117 128 138 141 142 142 142 141
134 129 130 125 124 125 123 125 130 125 121 130 123 125 150 126 117 125 96 102 105 105 101 100 104 112 127 130 130 158 199 161 110 104 106 118 141 150 153 154 156 158 153
149 146 133 131 129 133 122 127 135 134 128 125 111 121 114 94 93 99 109 109 110 115 122 118 134 166 190 141 147 189 170 133 130 123 116 133 155 164 167 167 169 172 169
155 153 145 142 145 147 129 134 126 124 126 131 119 120 108 122 123 124 134 141 144 160 150 149 180 160 123 89 107 140 117 136 126 127 130 150 169 175 178 181 185 185 183
162 160 154 150 152 145 135 135 148 142 141 131 126 131 125 129 127 124 146 139 155 146 130 156 151 134 120 116 144 148 148 183 133 110 130 156 176 187 192 193 196 196 196
171 170 165 166 161 164 162 187 146 141 138 134 134 136 166 159 149 142 139 168 183 157 171 182 163 156 176 177 193 182 192 120 152 164 143 164 185 197 203 205 204 205 205
180 177 174 179 175 177 179 187 180 170 162 154 153 152 193 181 152 170 182 196 198 205 214 219 198 192 209 210 218 203 230 211 174 213 182 171 189 199 207 211 210 211 213
185 185 185 187 185 190 197 202 199 194 180 183 166 174 205 212 190 219 204 215 205 205 219 228 242 233 217 212 220 224 222 228 204 208 214 210 193 195 204 212 217 220 222
187 189 195 197 188 194 205 215 217 209 194 213 210 194 209 223 225 241 239 235 226 236 228 223 233 235 244 240 235 238 226 210 215 216 218 219 224 208 200 207 217 224 228
193 194 198 205 199 199 200 205 219 217 231 242 238 234 221 231 234 242 247 248 248 246 246 248 218 243 242 246 238 231 231 229 223 223 226 229 225 225 220 196 207 218 225
191 196 202 204 203 203 201 204 218 224 231 234 237 235 241 240 240 248 238 236 255 255 253 258 257 254 254 249 257 250 245 237 232 229 232 230 229 229 229 221 211 215 218
191 194 199 206 201 203 207 212 211 217 224 226 231 230 234 246 249 250 260 235 252 256 256 250 251 243 247 248 251 249 244 234 231 234 233 238 236 238 241 240 239 234 212
194 195 199 204 204 207 208 215 222 234 237 235 242 229 234 240 250 243 246 254 251 254 254 257 254 264 258 242 258 267 255 230 214 219 223 222 233 231 233 235 239 239 250
197 198 200 201 203 207 210 210 213 217 236 233 231 227 231 240 248 260 261 263 266 261 254 254 254 253 260 253 244 258 271 271 277 212 209 228 227 239 247 242 236 237 238
195 193 197 198 200 202 205 215 218 227 239 248 248 240 243 245 256 259 261 260 264 267 266 260 255 260 258 259 249 246 259 280 273 267 240 207 209 233 252 262 256 239 236
189 188 192 196 197 198 202 209 218 229 237 246 242 231 251 251 259 269 268 268 264 266 268 272 274 265 260 259 261 258 254 249 244 252 265 268 257 258 251 258 276 284 276
183 185 189 192 194 194 198 208 217 224 232 240 239 242 241 246 256 271 271 275 274 274 269 265 267 262 264 265 266 265 261 260 255 245 254 260 263 267 264 295 295 306 307
Height
1543 1543 1540 1541 1541 1541 1541 1541 1541 1541 1541 1541 1541 1541 1541 1541 1542 1542 1543 1543 1544 1545 1546 1547 1547 1548 1549 1550 1551 1552 1553 1554 1555 1557 1558 1560 1561 1562 1563 1565 1566 1567 1567
1545 1544 1543 1543 1544 1544 1544 1544 1545 1544 1544 1545 1544 1545 1545 1545 1545 1545 1546 1547 1548 1548 1549 1550 1550 1551 1552 1553 1554 1555 1556 1557 1558 1559 1561 1562 1563 1565 1566 1567 1569 1569 1570
1547 1547 1546 1546 1546 1547 1547 1547 1548 1548 1548 1548 1548 1548 1548 1548 1548 1549 1549 1550 1551 1551 1552 1553 1554 1555 1556 1556 1557 1558 1559 1560 1561 1563 1564 1567 1566 1567 1568 1569 1570 1571 1572
1549 1550 1549 1548 1549 1550 1550 1550 1550 1551 1551 1551 1551 1551 1551 1552 1552 1552 1553 1553 1554 1554 1555 1556 1557 1558 1559 1560 1560 1561 1562 1563 1565 1566 1569 1570 1570 1569 1571 1571 1572 1573 1574
1551 1551 1550 1550 1551 1552 1552 1553 1553 1553 1554 1554 1554 1554 1554 1555 1555 1555 1556 1556 1557 1558 1558 1559 1560 1561 1562 1562 1563 1564 1565 1566 1567 1570 1571 1572 1572 1572 1573 1573 1574 1575 1576
1552 1554 1552 1552 1553 1554 1554 1555 1555 1556 1556 1556 1557 1557 1557 1558 1558 1558 1559 1559 1560 1561 1561 1562 1563 1564 1564 1565 1566 1567 1568 1569 1571 1573 1573 1574 1574 1574 1575 1575 1576 1577 1578
1555 1556 1555 1554 1555 1556 1557 1557 1558 1558 1559 1559 1559 1559 1560 1560 1561 1561 1562 1562 1563 1564 1564 1565 1566 1567 1567 1568 1568 1569 1570 1571 1575 1575 1575 1576 1575 1575 1576 1577 1578 1579 1580
1557 1558 1556 1556 1557 1558 1558 1559 1560 1560 1561 1561 1562 1562 1562 1563 1563 1564 1564 1565 1565 1566 1567 1568 1569 1569 1570 1570 1571 1571 1572 1573 1576 1577 1577 1577 1576 1577 1578 1579 1580 1580 1581
1559 1559 1560 1560 1559 1559 1560 1561 1562 1562 1563 1564 1564 1564 1565 1565 1566 1566 1567 1567 1568 1569 1570 1570 1571 1571 1572 1573 1573 1574 1574 1575 1579 1579 1579 1579 1578 1579 1579 1580 1581 1582 1583
1560 1561 1561 1562 1562 1563 1563 1563 1563 1564 1565 1565 1566 1566 1567 1568 1568 1569 1569 1569 1570 1571 1572 1572 1573 1574 1574 1574 1575 1575 1576 1577 1580 1581 1580 1579 1579 1580 1580 1581 1582 1583 1584
1560 1561 1563 1564 1564 1565 1566 1565 1565 1566 1567 1567 1568 1568 1570 1571 1572 1572 1571 1572 1572 1573 1574 1574 1575 1575 1576 1577 1577 1577 1578 1580 1581 1582 1581 1580 1580 1580 1581 1582 1583 1584 1585
1561 1563 1564 1565 1565 1567 1568 1567 1568 1569 1569 1570 1570 1571 1572 1572 1573 1573 1573 1573 1574 1575 1575 1576 1577 1577 1578 1580 1579 1579 1581 1581 1582 1582 1581 1580 1581 1581 1582 1582 1583 1584 1585
1562 1563 1565 1565 1565 1568 1568 1569 1570 1570 1570 1571 1571 1572 1572 1573 1574 1575 1576 1576 1576 1577 1578 1578 1579 1580 1581 1581 1581 1582 1582 1582 1583 1583 1582 1581 1581 1581 1582 1583 1583 1584 1585
1563 1564 1565 1566 1566 1567 1569 1570 1570 1571 1572 1573 1572 1573 1574 1574 1575 1576 1576 1578 1578 1578 1578 1580 1580 1580 1581 1581 1581 1582 1582 1582 1583 1583 1581 1581 1581 1581 1582 1583 1583 1584 1585
1563 1565 1565 1565 1566 1567 1568 1569 1571 1572 1573 1573 1573 1573 1574 1575 1576 1576 1576 1577 1578 1579 1579 1579 1580 1580 1580 1581 1581 1582 1582 1582 1582 1582 1581 1581 1581 1581 1582 1582 1583 1583 1584
1564 1565 1566 1566 1567 1567 1568 1569 1571 1572 1572 1573 1574 1574 1574 1575 1576 1576 1576 1577 1578 1579 1579 1579 1580 1580 1580 1580 1581 1581 1581 1581 1581 1581 1582 1581 1580 1581 1581 1581 1582 1582 1583
1564 1565 1566 1566 1567 1568 1569 1570 1572 1573 1573 1574 1574 1574 1574 1575 1576 1576 1577 1577 1578 1578 1577 1578 1578 1579 1579 1580 1580 1580 1580 1580 1580 1580 1580 1580 1580 1580 1580 1580 1581 1581 1581
1563 1565 1566 1567 1568 1568 1569 1570 1572 1573 1573 1574 1574 1574 1574 1575 1575 1576 1577 1578 1577 1577 1577 1577 1578 1579 1579 1579 1579 1579 1579 1578 1578 1578 1579 1579 1579 1579 1579 1578 1579 1579 1579
1562 1564 1565 1567 1568 1569 1569 1570 1571 1572 1572 1573 1574 1574 1574 1575 1575 1576 1576 1576 1576 1577 1577 1577 1577 1577 1577 1577 1577 1577 1577 1577 1577 1577 1577 1577 1577 1577 1578 1577 1577 1577 1577
1561 1562 1564 1565 1567 1568 1569 1570 1571 1571 1572 1572 1573 1573 1573 1574 1574 1575 1575 1575 1575 1575 1575 1575 1575 1575 1575 1575 1576 1576 1575 1575 1575 1575 1575 1575 1575 1576 1576 1576 1575 1575 1575
1559 1560 1562 1564 1566 1567 1568 1569 1570 1571 1572 1572 1572 1572 1573 1573 1573 1574 1574 1574 1574 1574 1574 1574 1574 1574 1574 1574 1574 1574 1574 1573 1572 1572 1572 1573 1573 1573 1573 1573 1573 1573 1573
1557 1558 1560 1562 1564 1566 1567 1568 1569 1570 1571 1571 1571 1571 1571 1572 1572 1573 1572 1572 1572 1572 1572 1572 1572 1572 1572 1572 1573 1572 1572 1572 1570 1570 1570 1570 1570 1571 1571 1571 1570 1570 1570
1554 1556 1558 1560 1562 1563 1565 1567 1567 1568 1569 1570 1570 1570 1570 1570 1570 1570 1570 1571 1570 1570 1570 1569 1569 1569 1570 1570 1570 1570 1570 1568 1568 1568 1567 1568 1568 1568 1568 1568 1568 1568 1568
1552 1554 1556 1557 1559 1561 1563 1564 1565 1566 1568 1568 1568 1568 1568 1568 1568 1568 1568 1568 1568 1568 1567 1567 1567 1567 1567 1567 1567 1566 1567 1567 1566 1566 1566 1566 1565 1565 1565 1566 1566 1565 1565
1550 1552 1553 1555 1556 1558 1559 1561 1563 1564 1565 1566 1566 1566 1566 1566 1566 1566 1566 1565 1565 1565 1564 1564 1564 1564 1564 1564 1564 1564 1563 1563 1563 1564 1563 1564 1563 1563 1563 1563 1563 1563 1563
1547 1549 1551 1552 1553 1555 1557 1559 1560 1561 1562 1563 1564 1564 1564 1564 1564 1564 1563 1563 1562 1562 1561 1561 1561 1561 1561 1560 1560 1560 1560 1560 1560 1560 1560 1560 1560 1560 1560 1560 1560 1560 1560